Location: *
(32.8667°N, 13.1833°E)
Time: 07:16:27
(UTC+00:00)

ATLAS CENTAUR R/B - Pass Details

Date: 18 July 2019
Orbit: 446 x 703 km, 64.7° (Epoch: 25 July)

Event Time Altitude Azimuth Distance (km) Brightness Sun altitude
Rises 22:35:39 0° 339° (NNW) 2,975 6.0 -35.4°
Reaches altitude 10° 22:38:11 10° 348° (NNW) 2,022 5.0 -35.5°
Enters shadow 22:39:43 19° 358° (N) 1,486 4.1 -35.6°
